Regional Weather Roundup
Issued by NWS

Home | Current Version | Previous Version | Text Only | Print | Product List | Glossary Off
Versions: 1 2 3 4 5 6 7 8 9 10 11 12 13 14 15 16 17 18 19 20 21 22 23 24 25 26 27 28 29 30 31 32 33 34 35 36 37 38 39 40 41 42 43 44 45 46 47 48 49 50

000
ASUS43 KFSD 311002
RWRSD

WEATHER ROUNDUP FOR SOUTH DAKOTA
NATIONAL WEATHER SERVICE SIOUX FALLS SD
400 AM CST SAT JAN 31 2015

NOTE: "FAIR" INDICATES FEW OR NO CLOUDS BELOW 12,000 FEET WITH NO
SIGNIFICANT WEATHER AND/OR OBSTRUCTIONS TO VISIBILITY.


SDZ001>005-009-010-012>017-311100-
NORTHWEST AND NORTH CENTRAL SOUTH DAKOTA

CITY           SKY/WX    TMP DP  RH WIND       PRES   REMARKS
BUFFALO          N/A     26  23  88 SE6       29.98F WCI  19
FAITH            N/A     23  20  88 E7        30.09F WCI  15
MOBRIDGE       CLOUDY    26  24  92 N12       30.14R FOG     WCI  16
$$

SDZ012>016-024>037-041>051-057-063-072>074-311100-
SOUTHWEST AND SOUTH CENTRAL SOUTH DAKOTA

CITY           SKY/WX    TMP DP  RH WIND       PRES   REMARKS
RAPID CTY ARPT CLOUDY    29  22  75 N5        30.04F WCI  24
PIERRE         MOCLDY    25  23  92 NE6       30.11R WCI  18
CUSTER         CLOUDY    25  17  72 NW3       29.99F
ELLSWORTH AFB  CLOUDY    31  22  71 NE7       30.04F WCI  24
PHILIP         CLOUDY    23  19  85 CALM      30.09F
PINE RIDGE     CLOUDY    25  22  88 CALM      30.01F
WINNER         FAIR      28  22  78 CALM      30.08F
$$

SDZ004>011-016>023-039-040-311100-
NORTHEAST SOUTH DAKOTA

CITY           SKY/WX    TMP DP  RH WIND       PRES   REMARKS
ABERDEEN       CLOUDY    26  23  88 N15       30.18F WCI  14
WATERTOWN      CLOUDY    24  23  96 N12       30.12R FOG     WCI  13
SISSETON         N/A     23  21  92 N17       30.19S WCI   9
$$

SDZ017-020-022-023-036>040-048>070-311100-
SOUTHEAST SOUTH DAKOTA

CITY           SKY/WX    TMP DP  RH WIND       PRES   REMARKS
SIOUX FALLS    PTCLDY    22  19  89 CALM      30.09F
HURON          PTCLDY    25  23  92 N10       30.14R WCI  15
MITCHELL       PTCLDY    25  23  92 NW8       30.11S WCI  16
YANKTON        MOCLDY    36  27  69 SW7       30.10F
$$

ABBREVIATIONS USED IN REMARKS
   TC - TEMPERATURE IN CELSIUS
  WCI - WIND CHILL INDEX
   HX - HEAT INDEX
  VSB - VISIBILITY




USA.gov is the U.S. government's official web portal to all federal, state and local government web resources and services.